Regional Weather Roundup
Issued by NWS Cleveland, OH

Home | Current Version | Previous Version | Graphics & Text | Print | Product List | Glossary On
Versions: 1 2 3 4 5 6 7 8 9 10 11 12 13 14 15 16 17 18 19 20 21 22 23 24 25 26 27 28 29 30 31 32 33 34 35 36 37 38 39 40 41 42 43 44 45 46 47 48 49 50
000
ASUS41 KCLE 230502
RWRCLE
OHIO REGIONAL WEATHER ROUNDUP
NATIONAL WEATHER SERVICE CLEVELAND, OH
100 AM EDT TUE SEP 23 2014

NOTE: "FAIR" INDICATES FEW OR NO CLOUDS BELOW 12,000 FEET WITH NO
SIGNIFICANT WEATHER AND/OR OBSTRUCTIONS TO VISIBILITY.

OHZ001>008-015>018-024>027-034-035-043-044-230600-
   NORTHWEST OHIO

CITY           SKY/WX    TMP DP  RH WIND       PRES   REMARKS
DEFIANCE       CLEAR    N/A N/A N/A CALM      30.29R
FINDLAY        CLEAR     45  42  89 CALM      30.27S
TOLEDO EXPRESS CLEAR     47  44  90 CALM      30.28R
TOLEDO EXEC    CLEAR     50  43  77 S3        30.29R
LIMA           CLEAR     47  43  86 CALM      30.28S
$$

OHZ009>014-019>023-028>033-038-089-230600-
   NORTHEAST OHIO

CITY           SKY/WX    TMP DP  RH WIND       PRES   REMARKS
CLE-HOPKINS    CLEAR     45  41  86 CALM      30.30R
CLE-LAKEFRONT  CLEAR     49  43  80 SE9       30.26S
CUY CO. ARPT   NOT AVBL
LORAIN-ELYRIA  CLEAR     47  42  83 S5        30.29R
ASHTABULA      CLEAR     45  42  89 CALM      30.28S
AKRON-CANTON   CLEAR     47  40  76 CALM      30.28S
WOOSTER        FOG       41  38  89 CALM      30.29S VSB 1
MANSFIELD      CLEAR     46  42  86 S3        30.29R
YOUNGSTOWN     CLEAR     42  39  89 CALM      30.28S
$$

OHZ042-051>053-060>062-070>072-077>081-230600-
  SOUTHWEST OHIO

CITY           SKY/WX    TMP DP  RH WIND       PRES   REMARKS
CINC-COVINGTON CLEAR     50  42  74 CALM      30.28S
CINC-LUNKEN    CLEAR     45  43  93 E3        30.30S
HAMILTON       CLEAR     43  41  93 CALM      30.30S
DAYTON         CLEAR     51  42  71 CALM      30.29S
WRIGHT-PAT AFB CLEAR     48  43  81 CALM      30.28S
DAYTON GENERAL CLEAR     48  43  82 CALM      30.28S
WILMINGTON     CLEAR     44  40  85 CALM      30.29R
$$

OHZ036-037-039>041-045>050-054>059-063>069-073>076-082>088-230600-
  CENTRAL AND SOUTHEAST OHIO

CITY           SKY/WX    TMP DP  RH WIND       PRES   REMARKS
COLUMBUS       CLEAR     49  42  77 CALM      30.28R
OSU AIRPORT    CLEAR     48  42  80 CALM      30.28S
BOLTON FIELD   CLEAR     41  40  98 W3        30.29S
RICKENBACK AFB CLEAR     44  40  88 CALM      30.28S
NEWARK         CLEAR     41  39  93 CALM      30.29S
MARION         CLEAR     42  39  89 CALM      30.29R
LANCASTER      CLEAR     41  38  89 CALM      30.30R
ZANESVILLE     CLEAR     42  39  89 CALM      30.29S
NEW PHILLY     FOG       41  41 100 SE3       30.30S VSB 1/2
$$


USA.gov is the U.S. government's official web portal to all federal, state and local government web resources and services.